OBJECT BQ, 64590

Orbit data source: Space-Track

You're viewing an Uncataloged Satellite

Recently launched and/or uncataloged satellites may have evolving metadata. Metadata may include but not limited to: Owner, Maufacturer, Bus, Motor, and Mission.

OBJECT BQ, 64590 is a satellite in SSO that was launched on Mon, 23 Jun 2025 UTC via an FALCON 9 launch vehicle from the Air Force Western Test Range (AFWTR). Unknown objects in Earth's orbit typically refer to objects detected orbiting the Earth but have not yet been identified or cataloged. These objects could be anything from previously untracked satellites, spent rocket stages, debris from satellite collisions, or even natural meteoroids temporarily captured by Earth's gravity.

Loading next visibility...
Identifier
64590, 2025-135BQ
Orbit
SSO
Country
Flag of TBDTBD
Related business
None
Manufacturer
Unknown
Mission
Operational Civil Technology
Bus & Motor
Unknown
Mass
Unknown
Launch date (UTC)
2025-06-23 (6 months ago)
Launch vehicle
FALCON 9
Launch site
Air Force Western Test Range (AFWTR)
Object type
Unknown
Shape & HBR
Box, 0.1 m
Radar Cross Section
0.035 m², Small (<0.1 m²)

Expand to show TLE details & history
Last TLE update: 15 hours ago

TLE from 15 hours ago
0 OBJECT BQ
1 64590U 25135BQ  25340.79243738  .00004975  00000-0  48241-3 0  9994
2 64590  97.7583  92.6243 0004169 246.0609 114.0174 14.93118668 25189
Epoch: 2025-12-06T19:01Z
TLE epoch observation values (Epoch: 2025-12-06T19:01:06.589Z)
Latitude
-0.00004°
Longitude
91.53176°
Altitude
592.445 km
Speed
7.563 km/s
True Right ascension
06h 10m 29s
True Declination
0° 00' 00"
Sunlit
Object was in full shadow at epoch
Visualization orbit readout
Latitude
Unknown
Longitude
Unknown
Altitude
Unknown
Speed
Unknown
Apparent Right ascension
Unknown
Apparent Declination
Unknown
Sunlit
N/A
Visualization observer readout
Local Sidereal Time
08:17:53
Azimuth
Unknown
Elevation
Unknown
Doppler factor
Unknown
Orbital elements
Apogee altitude
588.138 km
Perigee altitude
582.332 km
Semi-major axis
6,963.372 km
Eccentricity
0.00042
Inclination
97.7583°
RAAN
92.6243°
Arg. of periapsis
246.0609°
True anomaly
114.06103°
Mean anomaly
114.0174°
Eccentric anomaly
114.03921°
Mean motion
3.7352 °/min
Orbital period
96.38 mins
BSTAR
0.00048241
Loading maneuver chart data...
Computing Atmospheric mass density...
Loading historical data...
Loading historical data...
Loading historical data...
Loading historical data...
Loading historical data...
Loading historical data...
Loading historical data...

Documentation

Showing up to 5 results
|